Regional Weather Roundup
Issued by NWS Charleston, SC

Current Version | Previous Version | Text Only | Print | Product List | Glossary Off
Versions: 1 2 3 4 5 6 7 8 9 10 11 12 13 14 15 16 17 18 19 20 21 22 23 24 25 26 27 28 29 30 31 32 33 34 35 36 37 38 39 40 41 42 43 44 45 46 47 48 49 50
000 ASUS42 KCHS 011111 RWRCHS REGIONAL WEATHER ROUNDUP NATIONAL WEATHER SERVICE CHARLESTON SC 600 AM EST SUN FEB 01 2015 NOTE: "FAIR" INDICATES FEW OR NO CLOUDS BELOW 12,000 FEET WITH NO SIGNIFICANT WEATHER AND/OR OBSTRUCTIONS TO VISIBILITY. NOT ALL STATIONS ARE QUALITY CONTROLLED BY THE NATIONAL WEATHER SERVICE. USE DATA WITH CAUTION...ESPECIALLY DEWPOINT OBSERVATIONS. SCZ027-030-031-034>040-042>050-011200- ...SOUTHEAST SOUTH CAROLINA... CITY SKY/WX TMP DP RH WIND PRES REMARKS N CHARLESTON CLOUDY 40 34 79 CALM 30.30S WATERFRONT PRK N/A 46 N/A N/A CALM N/A MOUNT PLEASANT FAIR 37 36 93 CALM 30.31R PINOPOLIS N/A 45 34 65 VRB2 30.21S MONCKS CORNER FAIR 37 32 81 CALM 30.30R SUMMERVILLE NOT AVBL BEAUFORT MCAS MOCLDY 39 37 92 CALM 30.29S BEAUFORT ARPT FAIR 43 41 93 CALM 30.28S HILTON HEAD IS NOT AVBL WALTERBORO PTSUNNY 36 36 100 CALM 30.30S ALLENDALE FAIR 34 32 93 CALM 30.28S ...SOUTHERN MIDLANDS AND PEE DEE... CITY SKY/WX TMP DP RH WIND PRES REMARKS GEORGETOWN NOT AVBL KINGSTREE NOT AVBL ORANGEBURG MOCLDY 36 29 75 CALM 30.29S BARNWELL N/A 34 32 93 CALM 30.29R AIKEN FAIR 37 32 81 CALM 30.30R MANNING FAIR 37 34 87 CALM 30.30R COLUMBIA CLOUDY 40 29 64 CALM 30.28R SUMTER CLOUDY 37 29 73 CALM 30.27S FLORENCE CLOUDY 38 28 67 CALM 30.30R MYRTLE BEACH CLOUDY 37 30 75 CALM 30.33F N MYRTLE BEACH CLOUDY 36 31 82 CALM 30.31F $$ GAZ063-065-086>088-099>101-113>116-118-119-134>141-150-011200- ...SOUTHEAST GEORGIA... CITY SKY/WX TMP DP RH WIND PRES REMARKS SAVANNAH ARPT PTCLDY 37 35 92 CALM 30.29R HUNTER AAF PTCLDY 41 39 91 CALM 30.26R FORT STEWART CLEAR 36 34 91 CALM 30.27R STATESBORO PTCLDY 34 34 100 CALM 30.28R SYLVANIA PTSUNNY 35 34 96 CALM 30.28S CLAXTON FAIR 34 34 100 CALM 30.28R ...CSRA...CENTRAL AND FAR SOUTHEAST GEORGIA... CITY SKY/WX TMP DP RH WIND PRES REMARKS THOMSON CLOUDY 39 33 79 CALM 30.30R AUGUSTA-BUSH CLOUDY 34 28 79 CALM 30.27F AUGUSTA-DANIEL CLOUDY 42 26 53 SE6 30.26F SWAINSBORO FAIR 41 30 65 E5 30.26S VIDALIA PTCLDY 37 36 93 E5 30.26S WCI 34 EASTMAN FAIR 34 34 100 CALM 30.27S HAZLEHURST FAIR 43 39 85 SE6 30.23F ALMA CLEAR 39 35 86 E3 30.24F WAYCROSS CLEAR 42 41 96 CALM 30.25S JESUP FAIR 37 37 100 CALM 30.27R BAXLEY FAIR 39 36 87 CALM 30.25S BRUNSWICK CLEAR 41 37 87 CALM 30.27R SAINT SIMONS CLEAR 48 46 93 CALM 30.26S $$ SCZ027-028-034-036>038-045-046-048>050-GAZ119-141-011200- ...LAKE AND SUPPLEMENTAL COASTAL OBSERVATIONS... STATION/POSITION TIME TEMP WIND PRES WAVE SWELL AIR SEA DIR/SP/G HT/PER HT/PER/DIR (UTC) (F) (DEG/KT/KT) (MB) (FT/S) (FT/S/D) UPR LAKE MARION NOT AVBL WINYAH BAY NOT AVBL LAKE MURRAY 1000 47 210/ 9/ 10 1024.0F ACE BASIN NERRS NOT AVBL FORT PULASKI 1000 49 52 70/ 4/ 5 1025.5F SAPELO ISLAND 1000 49 80/ 5 1024.0F $$ ANZ835-935-AMZ111-154-330-350-352-354-370-450-454-472-011200- ...C-MAN AND BUOY OBSERVATIONS... STATION/POSITION TIME TEMP WIND PRES WAVE SWELL AIR SEA DIR/SP/G HT/PER HT/PER/DIR (UTC) (F) (DEG/KT/KT) (MB) (FT/S) (FT/S/D) BUOY 41004 1050 57 70 140/ 4/ 6 1025.6F 4/10 3/10 BUOY 41008 1050 56 54 90/ 6/ 8 1024.5F 3/11 3/ 70/11 FOLLY BEACH CMAN 1100 49 60/ 5/ 6 1026.4R CAPERS NEARSHORE 1000 50 90/ 2/ 4 N/A FRIPP NEARSHORE 1000 51 100/ 4/ 6 1024.3F STATION/POSITION TIME TEMP WIND PRES WAVE SWELL AIR SEA DIR/SP/G HT/PER HT/PER/DIR (UTC) (F) (DEG/KT/KT) (MB) (FT/S) (FT/S/D) 5E ST. MARYS GA 1021 56 N/A 3/10 2/ 80/11 FRYING PAN BUOY 1050 53 64 280/ 4/ 8 1027.6R 2/ 8 2/ 60/ 8 BUOY 41025 1050 51 71 270/ 17/ 21 1026.0R 8/11 7/ 80/11 CAPE LOOKOUT NC 1000 47 270/ 9/ 9 1026.4R BUOY 41002 1050 57 70 340/ 6/ 8 1027.0R 8/11 8/ 10/11 BUOY 41010 1020 65 74 120/ 10/ 12 1024.8R ST AUGUSTINE FL 1100 51 CALM / 1 1024.8R $$

USA.gov is the U.S. government's official web portal to all federal, state and local government web resources and services.